* Astronomy

Members Login
Username 
 
Password 
    Remember Me  
Post Info TOPIC: Ariane 4 3RB Re-entry


L

Posts: 131433
Date:
RE: Ariane 4 3RB Re-entry
Permalink  
 


ariane43rb
Expand (58kb, 630 x 390)

Predicted Decay Time 2008-01-13 09:27:00 GMT ± 1 Minute
Predicted Decay Location 3° S, 263° E
Inclination 6.8°
Revolution Number 16209

ARIANE 42P+3 R/B
1 23599U 95029B 08013.29916231 .48821791 -34707-4 79482-3 0 2215
2 23599 006.7594 316.5159 0132410 339.3300 020.8432 16.24941999162061
1 23599U 95029B 08013.23782753 .47042400 -34112-4 94458-3 0 2209
2 23599 006.8070 317.4481 0156338 337.9457 022.4822 16.18261482162056
1 23599U 95029B 08013.17618171 .35932859 -33308-4 49005-3 0 2199
2 23599 006.8293 318.0742 0209520 334.4979 025.9783 16.08988922162040
1 23599U 95029B 08012.92659131 .32759297 -31968-4 96631-3 0 2188
2 23599 006.8231 320.0781 0267893 331.1218 027.4454 15.90272923162000
1 23599U 95029B 08012.67441033 .30457418 -30969-4 95461-3 0 2177
2 23599 006.8197 322.2987 0333760 326.2485 031.6453 15.74531077161961


-- Edited by Blobrana at 17:36, 2008-01-13

__________________


L

Posts: 131433
Date:
Permalink  
 

Ariane4 3 RB
Expand (59kb, 630 x 390)

__________________


L

Posts: 131433
Date:
Permalink  
 

An Ariane 4 Stage 4 Rocket Body that was launched on the 10th  June 1995, from the Centre Spatial Guyanais ELA-2, for the DBS 3 mission is predicted to re-enter the Earths atmosphere on the 9th January, 2008 @ 18:11 UTC ± 40 minutes

Predicted Decay Location     2.8° N, 0.2° E
Direction    ascending
Inclination    6.8°
Revolution Number    16213


TLE Data
ARIANE 42P+3 R/B
1 23599U 95029B 08009.65277577 .09511158 -25728-4 69116-3 0 2062
2 23599 006.8312 345.2655 0722186 280.9023 070.8644 14.78256263161506
1 23599U 95029B 08009.38255514 .09947764 -25472-4 73699-3 0 2051
2 23599 006.8399 347.2966 0742831 276.9166 075.3779 14.73309268161463
1 23599U 95029B 08009.04326327 .08097850 -25134-4 55659-3 0 2046
2 23599 006.8420 349.6803 0773494 272.1569 079.9480 14.66530006161410
1 23599U 95029B 08008.36031706 .07865642 -24568-4 61078-3 0 2036
2 23599 006.8241 354.4707 0818957 262.7149 087.9379 14.55226912161312
1 23599U 95029B 08008.15438629 .07963582 -24396-4 66384-3 0 2023
2 23599 006.8379 355.8969 0831287 259.8710 090.3136 14.51967749161282



__________________
Page 1 of 1  sorted by
 
Quick Reply

Please log in to post quick replies.



Create your own FREE Forum
Report Abuse
Powered by ActiveBoard